Regional Weather Roundup
Issued by NWS Sterling, VA

Home | Current Version | Previous Version | Text Only | Print | Product List | Glossary On
Versions: 1 2 3 4 5 6 7 8 9 10 11 12 13 14 15 16 17 18 19 20 21 22 23 24 25 26 27 28 29 30 31 32 33 34 35 36 37 38 39 40 41 42 43 44 45 46 47 48 49 50
000
ASUS41 KLWX 100810
RWRLWX

REGIONAL WEATHER ROUNDUP
NATIONAL WEATHER SERVICE BALTIMORE MD/WASHINGTON DC
300 AM EST WED FEB 10 2016

Note: "FAIR" indicates few or no clouds below 12,000 feet
with no significant weather and/or obstructions to visibility.
 TC=TEMPERATURE CELSIUS

 * =Non NWS site. Station does not report precipitation (e.g. rain,
    snow, etc.), thunder, or fog.

DCZ001-MDZ009-015-VAZ040>042-051-053>054-100900-
WASHINGTON METRO

CITY           SKY/WX    TMP DP  RH WIND       PRES   REMARKS
WASHINGTON NAT LGT SNOW  29  24  82 W7        29.73R
DULLES         CLOUDY    29  19  66 W10       29.71R WCI  20
ANDREWS AFB    FLURRIES  29  23  79 W16G22    29.69S WCI  17
FT BELVOIR     FLURRIES  28  23  80 W6        29.72S
QUANTICO       CLOUDY    31  23  72 NW13      29.75R WCI  21
COLLEGE PARK*  CLOUDY    30  25  80 W8        29.71S WCI  23
LEESBURG*      CLOUDY    30  27  86 SW3       29.70S
MANASSAS*      CLOUDY    30  23  74 W8        29.72S WCI  23
GAITHERSBURG*  CLOUDY    27  19  74 W7        29.72R

$$

MDZ006>007-011-014-100900-
BALTIMORE METRO

CITY           SKY/WX    TMP DP  RH WIND       PRES   REMARKS
BWI AIRPORT    LGT SNOW  28  23  81 W15       29.68R WCI  16
MD SCIENCE CTR   N/A     30  23  75 MISG      29.69R
MARTIN STATE   LGT SNOW  32  28  86 SW10      29.69R WCI  24
ANNAPOLIS      CLOUDY    31  23  72 W12G20    29.69R WCI  22
FORT MEADE*    CLOUDY    30  25  80 W6        29.72R

$$

MDZ012-015-019>023-100900-
MARYLAND EASTERN SHORE

CITY           SKY/WX    TMP DP  RH WIND       PRES   REMARKS
OCEAN CITY     CLOUDY    32  27  81 W5        29.67R
SALISBURY      CLOUDY    32  24  72 W9        29.67R WCI  24
BAY BRIDGE AP*   N/A     32  23  69 W13G21    29.70R WCI  22
CAMBRIDGE*     CLOUDY    32  23  69 W12G18    29.68R WCI  23
EASTON*        CLOUDY    32  25  76 NW10      29.71F WCI  24

$$

MDZ017>025-100900-
SOUTHERN MARYLAND

CITY           SKY/WX    TMP DP  RH WIND       PRES   REMARKS
PATUXENT RIVER CLOUDY    32  21  64 NW16      29.70S WCI  21
ST INIGOES     CLOUDY    33  21  61 NW12G17   29.70R WCI  24
LEONARDTOWN*   CLOUDY    32  21  64 W12G20    29.72R WCI  23

$$

MDZ003>005-100900-
NORTH CENTRAL MARYLAND

CITY           SKY/WX    TMP DP  RH WIND       PRES   REMARKS
FREDERICK*     CLOUDY    28  25  86 W9G16     29.72R WCI  20
HAGERSTOWN APT CLOUDY    27  20  75 SW6       29.67S
WESTMINSTER*   LGT SNOW  25  23  93 W7        29.64S

$$

MDZ501>502-100900-
WESTERN MARYLAND

CITY           SKY/WX    TMP DP  RH WIND       PRES   REMARKS
OAKLAND*       CLOUDY    16  14  93 W14G23    29.59R FOG     WCI   1
CUMBERLAND*    MOCLDY    30  18  59 W14       29.74S WCI  20

$$

VAZ025>031-100900-
SHENANDOAH VALLEY

CITY           SKY/WX    TMP DP  RH WIND       PRES   REMARKS
WINCHESTER*    CLOUDY    30  18  59 W12G22    29.69R WCI  21
FRONT ROYAL*   CLOUDY    30  14  51 W6        29.69S
LURAY*         CLOUDY    28  18  64 SW6       29.71R
NEW MARKET*    CLOUDY    28  12  51 W3        29.71R
STAUNTON*      MOCLDY    29  14  54 CALM      29.73R
WAYNESBORO*    FAIR      23  10  58 W3        29.70S

$$

WVZ021-048>050-054>055-100900-
EASTERN WEST VIRGINIA PANHANDLE

CITY           SKY/WX    TMP DP  RH WIND       PRES   REMARKS
MARTINSBURG    CLOUDY    28  16  60 W13       29.69S WCI  17
PETERSBURG*    CLOUDY    28  12  52 CALM      29.74R

$$

VAZ036>039-050-100900-
CENTRAL FOOTHILLS

CITY           SKY/WX    TMP DP  RH WIND       PRES   REMARKS
CHARLOTTESVILL CLOUDY    30  13  49 VRB3      29.71S
CULPEPER*      CLOUDY    29  19  64 CALM      29.72S
ORANGE*        MOCLDY    30  21  69 SW6       29.73S
GORDONSVILLE*  CLOUDY    30  17  58 SW3       29.72S
WARRENTON*     CLOUDY    31  23  72 CALM      29.71S

$$

VAZ055>057-100900-
NORTH AND CENTRAL PIEDMONT

CITY           SKY/WX    TMP DP  RH WIND       PRES   REMARKS
FREDERICKSBRG* CLOUDY    30  25  81 W8        29.73S WCI  23
STAFFORD*      FLURRIES  30  22  70 NW6       29.77R

$$

NCZ024-NYZ072-PAZ021-071-VAZ022-071-100900-
OTHER REGIONAL OBSERVATIONS

CITY           SKY/WX    TMP DP  RH WIND       PRES   REMARKS
NEW YORK CITY  CLOUDY    33  29  85 W7        29.60F FOG
PHILADELPHIA   CLOUDY    33  27  78 W8        29.63S WCI  26
PITTSBURGH     FLURRIES  24  15  68 W17G24    29.70R WCI  11
ROANOKE        MOCLDY    25  12  58 NW23G32   29.79F WCI  10
RICHMOND       LGT SNOW  28  23  81 W10       29.74R WCI  19
RALEIGH        CLEAR     26  13  57 W3        29.84R

$$

ANZ530>537-100900-
MARINE OBSERVATIONS

STATION/POSITION TIME  TEMP    WIND        PRES
                       AIR SEA DIR/SP/G
                 (UTC) (F)     (DEG/KT/KT) (MB)
THOMAS PT LIGHT  NOT AVBL
BALT KEY BRIDGE  0700   31     280/ 14/ 16 1004.8R
COVE POINT       0700   31     340/ 18/ 22 1006.1R
LEWISETTA        0700   34 41  310/  8/  9 1005.5R
SOLOMONS ISLAND  0700   33 40  300/  8/ 13   N/A
PINEY POINT      0700          340/ 17/ 19   N/A

$$





USA.gov is the U.S. government's official web portal to all federal, state and local government web resources and services.